Regional Weather Roundup
Issued by NWS

Home | Current Version | Previous Version | Text Only | Print | Product List | Glossary Off
Versions: 1 2 3 4 5 6 7 8 9 10 11 12 13 14 15 16 17 18 19 20 21 22 23 24 25 26 27 28 29 30 31 32 33 34 35 36 37 38 39 40 41 42 43 44 45 46 47 48 49 50

000
ASUS45 KBOU 250310
RWRCO

WEATHER ROUNDUP FOR COLORADO
NATIONAL WEATHER SERVICE DENVER/BOULDER CO
800 PM MST FRI NOV 24 2017

NOTE: "FAIR" INDICATES FEW OR NO CLOUDS BELOW 12000 FEET WITH NO
SIGNIFICANT WEATHER AND/OR OBSTRUCTIONS TO VISIBILITY.

COZ001>005-013-030-031-250400-
...NORTHWEST COLORADO...

CITY           SKY/WX    TMP DP  RH WIND       PRES   REMARKS
CRAIG          FAIR      36  28  73 CALM      30.15R
HAYDEN         FAIR      40  29  64 SW5       30.17R
MEEKER         FAIR      36  28  73 CALM      30.15R
RABBIT EARS PA FAIR      28  27  93 W12G24    30.21R WCI  18
STEAMBOAT SPGS MOCLDY    37  33  85 CALM      30.15R
WALDEN         FAIR      32  25  74 SE8       30.16S WCI  25
$$

COZ006>008-011-250400-
...WEST CENTRAL VALLEYS...

CITY           SKY/WX    TMP DP  RH WIND       PRES   REMARKS
GRAND JUNCTION FAIR      43  29  57 E8        30.09R
MONTROSE       FAIR      43  29  57 S6        30.14R
EAGLE          FAIR      39  27  62 E7        30.16R
RIFLE          FAIR      41  31  67 E8        30.11R
DELTA          FAIR      48  32  53 NE5       30.11R
NUCLA          FAIR      46  21  36 E9        30.15R
$$

COZ017>023-064>068-250400-
...SOUTHWEST COLORADO...

CITY           SKY/WX    TMP DP  RH WIND       PRES   REMARKS
DURANGO        FAIR      45  24  43 NE9       30.12R
CORTEZ         FAIR      41  23  48 E5        30.12R
PAGOSA SPRINGS FAIR      40  25  54 CALM      30.17S
TELLURIDE      FAIR      41  26  54 CALM      30.28R
WOLF CREEK PAS NOT AVBL
$$

COZ009-010-012-014-032>034-037-058>063-250400-
...CENTRAL COLORADO...

CITY           SKY/WX    TMP DP  RH WIND       PRES   REMARKS
ASPEN          FAIR      38  28  67 S8        30.17S
BUENA VISTA    FAIR      42  24  48 NW7       30.16R
COPPER MTN     FAIR      30  23  74 W3        30.31S
BERTHOUD PASS  CLOUDY    21  10  63 NW26G37   30.26F HAZE    WCI   4
COTTONWOOD PAS FAIR      46  21  36 W15G26    30.22R
GUNNISON       FAIR      37  21  52 CALM      30.19
KREMMLING      FAIR      36  32  87 CALM      30.18S
LEADVILLE      FAIR      31  20  63 NE3       30.23R
MONARCH PASS   FAIR      32  18  55 W37G43    30.39F WCI  16
SALIDA         FAIR      51  22  32 N3        30.20S
SUNLIGHT       FAIR      32  19  59 W8G24     30.30F WCI  25
WILKERSON PASS FAIR      32  19  59 W9        30.26S WCI  24
$$

COZ069>075-250400-
...SAN LUIS VALLEY/SANGRE DE CRISTO MOUNTAINS...

CITY           SKY/WX    TMP DP  RH WIND       PRES   REMARKS
ALAMOSA        FAIR      45  22  40 N10       30.14R
DEL NORTE      FAIR      49  23  35 NW13G18   30.16R
LA VETA PASS   FAIR      43  19  39 W14G28      N/A
SAGUACHE       FAIR      46  19  34 NW16G23   30.14R
$$

COZ035-036-038>040-250400-
...NORTHERN COLORADO FRONT RANGE...

CITY           SKY/WX    TMP DP  RH WIND       PRES   REMARKS
DENVER INTL AP FAIR      40  31  70 S12       30.04R
DMNS CITY PARK   N/A     50  32  49 S8        30.03F
AURORA         PTCLDY    41  32  72 S10       30.05S
FRONT RANGE AP NOT AVBL
ERIE MUNI ARPT FAIR      51  32  48 S10       30.07R
BOULDER MUN AP FAIR      50  32  50 SE3       30.01S
CENTENNIAL     FAIR      44  33  65 S10       30.05F
BROOMFIELD     PTCLDY    50  32  50 SE6       30.04S
FORT COLLINS   FAIR      44  34  67 E10       30.03R
LONGMONT       FAIR      44  34  68 CALM      30.05R
$$

COZ041-046-047-076>085-087-088-250400-
...PIKES PEAK/PALMER DIVIDE AND SOUTHERN FOOTHILLS...

CITY           SKY/WX    TMP DP  RH WIND       PRES   REMARKS
COLO. SPRINGS  FAIR      49  32  52 CALM      30.10R
A. F. ACADEMY  FAIR      40  30  67 N7        30.09R
SCHRIEVER AFB  MOCLDY    44  31  60 S7        30.11R
CHEYENNE MTN   FAIR      48  29  48 W6        30.07R
ELLICOTT         N/A    N/A N/A N/A S3        30.08R
FALCON         FAIR      40  30  66 N6        30.11R
FORT CARSON    FAIR      46  31  57 E5        30.08R
LIMON          FAIR      39  32  76 NW5       30.05R
MONUMENT HILL  FAIR      34  28  80 SE6       30.11S WCI  29
CANON CITY     FAIR      52  34  50 S7        30.08R
WALSENBURG     FAIR      52  27  37 NE6       30.10R
TRINIDAD       FAIR      53  29  39 NE14      30.10R
$$

COZ042>045-048>051-090-091-250400-
...NORTHEAST COLORADO...

CITY           SKY/WX    TMP DP  RH WIND       PRES   REMARKS
GREELEY ARPT   FAIR      42  33  70 SE6       30.03R
AKRON          FAIR      41  25  53 NE8       30.02S
BURLINGTON     MOCLDY    48  35  60 N5        30.03R
WRAY           NOT AVBL
YUMA           FAIR      45  27  49 N3        30.01F
STERLING       FAIR      36  28  75 CALM      30.01R
HOLYOKE        FAIR      41  27  56 CALM      30.01F
FORT MORGAN    FAIR      41  31  69 N12       30.03R
$$

COZ086-089-092>099-250400-
...SOUTHEAST COLORADO...

CITY           SKY/WX    TMP DP  RH WIND       PRES   REMARKS
PUEBLO         FAIR      55  33  43 SE8       30.05R
LA JUNTA       FAIR      57  34  41 NE22G32   30.01R
LAMAR          FAIR      60  33  36 E17G23    29.99R
SPRINGFIELD      N/A     53  32  44 NE13      30.02R
$$



USA.gov is the U.S. government's official web portal to all federal, state and local government web resources and services.